Location: ????????
(55.6189°N, 38.3031°E)
Time: 07:33:53
(UTC+00:00)

Cosmos 2322 Rocket - Pass Details

Date: 15 November 2019
Orbit: 832 x 851 km, 71.0° (Epoch: 15 December)

Event Time Altitude Azimuth Distance (km) Brightness Sun altitude
Exits shadow 02:05:44 28° 336° (NNW) 1,538 3.3 -24.3°
Maximum altitude 02:08:46 67° 52° (NE) 917 2.5 -23.9°
Drops below altitude 10° 02:14:25 10° 134° (SE) 2,467 5.2 -23.1°
Sets 02:16:53 0° 138° (SE) 3,401 6.0 -22.7°
